When you browse on this site, cookies collect data to enhance your experience and personalize the content and advertising you see.
Visit our Privacy Policy to learn more. By continuing to use the site, you agree to this use of cookies and data.
  • In United Kingdom
  • List of Countries
  • For 7 days
  • Water Temperature
  • Satellite Maps
  • Weather Map
  • Weather Widgets
  • user-avatar
    Login

    Hourly Weather Innsbruck

    Today, 20 April, Saturday

    Time Temperature Precipitation Wind Pressure Humidity
    00:00 -1°C° 0 mm 2 mps 601 mmHg 61%
    01:00 -1°C° 0 mm 3 mps 601 mmHg 59%
    02:00 -2°C° 0 mm 3 mps 600 mmHg 61%
    03:00 -2°C° 0 mm 2 mps 600 mmHg 63%
    04:00 -3°C° 0 mm 2 mps 600 mmHg 64%
    05:00 -2°C° 0 mm 2 mps 601 mmHg 63%
    06:00 -1°C° 0 mm 2 mps 601 mmHg 62%
    07:00 +2°C° 0 mm 2 mps 601 mmHg 61%
    08:00 +4°C° 0 mm 2 mps 602 mmHg 55%
    09:00 +6°C° 0 mm 2 mps 603 mmHg 49%
    10:00 +10°C° 0 mm 1 mps 604 mmHg 43%
    11:00 +11°C° 0 mm 1 mps 604 mmHg 39%
    12:00 +12°C° 0 mm 1 mps 605 mmHg 36%
    13:00 +13°C° 0 mm 1 mps 605 mmHg 33%
    14:00 +13°C° 0 mm 1 mps 605 mmHg 33%
    15:00 +13°C° 0 mm 1 mps 604 mmHg 33%
    16:00 +12°C° 0 mm 1 mps 604 mmHg 33%
    17:00 +10°C° 0 mm 1 mps 603 mmHg 43%
    18:00 +7°C° 0 mm 1 mps 601 mmHg 53%
    19:00 +3°C° 0 mm 0 mps 600 mmHg 64%
    20:00 +3°C° 0 mm 1 mps 600 mmHg 62%
    21:00 +3°C° 0 mm 1 mps 600 mmHg 61%
    22:00 +1°C° 0 mm 2 mps 600 mmHg 60%
    23:00 +1°C° 0 mm 2 mps 599 mmHg 58%

    Tomorrow, 21 April, Sunday

    Time Temperature Precipitation Wind Pressure Humidity
    00:00 -1°C° 0 mm 2 mps 599 mmHg 57%
    01:00 -1°C° 0 mm 2 mps 599 mmHg 55%
    02:00 -1°C° 0 mm 2 mps 599 mmHg 55%
    03:00 -2°C° 0 mm 2 mps 598 mmHg 55%
    04:00 -2°C° 0 mm 2 mps 598 mmHg 55%
    05:00 -1°C° 0 mm 2 mps 598 mmHg 53%
    06:00 +1°C° 0 mm 2 mps 599 mmHg 52%
    07:00 +3°C° 0 mm 2 mps 599 mmHg 50%
    08:00 +5°C° 0 mm 2 mps 600 mmHg 43%
    09:00 +9°C° 0 mm 1 mps 600 mmHg 36%
    10:00 +11°C° 0 mm 1 mps 601 mmHg 29%
    11:00 +12°C° 0 mm 1 mps 601 mmHg 27%
    12:00 +13°C° 0 mm 1 mps 601 mmHg 26%
    13:00 +14°C° 0 mm 1 mps 601 mmHg 24%
    14:00 +14°C° 0 mm 1 mps 601 mmHg 25%
    15:00 +14°C° 0 mm 1 mps 600 mmHg 26%
    16:00 +13°C° 0 mm 2 mps 600 mmHg 27%
    17:00 +10°C° 0 mm 2 mps 599 mmHg 35%
    18:00 +7°C° 0 mm 2 mps 597 mmHg 43%
    19:00 +5°C° 0 mm 2 mps 596 mmHg 52%
    20:00 +3°C° 0 mm 2 mps 596 mmHg 55%
    21:00 +2°C° 0 mm 2 mps 595 mmHg 58%
    22:00 0°C° 0 mm 3 mps 595 mmHg 61%
    23:00 0°C° 0 mm 3 mps 595 mmHg 65%

    Day after tomorrow, 22 April, Monday

    Time Temperature Precipitation Wind Pressure Humidity
    00:00 -1°C° 0 mm 3 mps 595 mmHg 69%
    01:00 -1°C° 0 mm 3 mps 594 mmHg 73%
    02:00 -1°C° 0 mm 3 mps 594 mmHg 76%
    03:00 -1°C° 0 mm 3 mps 593 mmHg 78%
    04:00 -2°C° 0 mm 3 mps 593 mmHg 80%
    05:00 -1°C° 0 mm 3 mps 593 mmHg 75%
    06:00 +1°C° 0 mm 3 mps 593 mmHg 69%
    07:00 +2°C° 0 mm 3 mps 594 mmHg 63%
    08:00 +4°C° 0 mm 3 mps 594 mmHg 52%
    09:00 +7°C° 0 mm 3 mps 595 mmHg 41%
    10:00 +10°C° 0 mm 3 mps 595 mmHg 29%
    11:00 +11°C° 0 mm 3 mps 595 mmHg 28%
    12:00 +12°C° 0 mm 3 mps 595 mmHg 27%
    13:00 +13°C° 0 mm 3 mps 595 mmHg 25%
    14:00 +12°C° 0 mm 3 mps 594 mmHg 27%
    15:00 +12°C° 0 mm 3 mps 594 mmHg 28%
    16:00 +12°C° 0 mm 3 mps 593 mmHg 29%
    17:00 +10°C° 0 mm 3 mps 592 mmHg 38%
    18:00 +7°C° 0 mm 3 mps 591 mmHg 46%
    19:00 +5°C° 0 mm 2 mps 589 mmHg 54%
    20:00 +3°C° 0 mm 3 mps 589 mmHg 60%
    21:00 +2°C° 0 mm 3 mps 589 mmHg 67%
    22:00 +1°C° 0 mm 3 mps 588 mmHg 73%
    23:00 +1°C° 0 mm 3 mps 588 mmHg 75%

    23 April, Tuesday

    Time Temperature Precipitation Wind Pressure Humidity
    00:00 +1°C° 0 mm 3 mps 588 mmHg 77%
    01:00 +1°C° 0 mm 3 mps 587 mmHg 79%
    02:00 +1°C° 0 mm 3 mps 587 mmHg 78%
    03:00 +1°C° 0 mm 3 mps 586 mmHg 76%
    04:00 0°C° 0 mm 3 mps 586 mmHg 75%
    05:00 +1°C° 0.1 mm 3 mps 586 mmHg 74%
    06:00 +2°C° 0.1 mm 3 mps 586 mmHg 73%
    07:00 +2°C° 0.1 mm 3 mps 586 mmHg 71%
    08:00 +4°C° 0 mm 3 mps 587 mmHg 66%
    09:00 +5°C° 0 mm 3 mps 587 mmHg 60%
    10:00 +8°C° 0 mm 3 mps 588 mmHg 55%
    11:00 +9°C° 0 mm 3 mps 588 mmHg 52%
    12:00 +10°C° 0 mm 3 mps 588 mmHg 49%
    13:00 +11°C° 0 mm 3 mps 589 mmHg 46%
    14:00 +11°C° 0.1 mm 3 mps 589 mmHg 48%
    15:00 +10°C° 0.1 mm 3 mps 589 mmHg 49%
    16:00 +10°C° 0.1 mm 3 mps 588 mmHg 50%
    17:00 +9°C° 0.1 mm 3 mps 588 mmHg 59%
    18:00 +7°C° 0.1 mm 3 mps 587 mmHg 67%
    19:00 +5°C° 0.1 mm 2 mps 587 mmHg 76%
    20:00 +4°C° 0.2 mm 3 mps 587 mmHg 78%
    21:00 +3°C° 0.2 mm 3 mps 587 mmHg 80%
    22:00 +3°C° 0.2 mm 3 mps 588 mmHg 82%
    23:00 +2°C° 0 mm 3 mps 588 mmHg 84%

    24 April, Wednesday

    Time Temperature Precipitation Wind Pressure Humidity
    00:00 +2°C° 0 mm 3 mps 588 mmHg 85%
    01:00 +2°C° 0 mm 3 mps 588 mmHg 86%
    02:00 +1°C° 0 mm 3 mps 588 mmHg 86%
    03:00 +1°C° 0 mm 3 mps 588 mmHg 87%
    04:00 +1°C° 0 mm 3 mps 589 mmHg 87%
    05:00 +2°C° 0 mm 3 mps 589 mmHg 84%
    06:00 +2°C° 0 mm 3 mps 590 mmHg 82%
    07:00 +3°C° 0 mm 3 mps 590 mmHg 80%
    08:00 +5°C° 0 mm 3 mps 591 mmHg 73%
    09:00 +7°C° 0 mm 3 mps 592 mmHg 66%
    10:00 +9°C° 0 mm 3 mps 593 mmHg 59%
    11:00 +8°C° 0 mm 4 mps 594 mmHg 57%
    12:00 +10°C° 0 mm 4 mps 594 mmHg 55%
    13:00 +10°C° 0 mm 4 mps 594 mmHg 53%
    14:00 +10°C° 0 mm 4 mps 594 mmHg 54%
    15:00 +10°C° 0 mm 4 mps 593 mmHg 55%
    16:00 +8°C° 0 mm 4 mps 593 mmHg 56%
    17:00 +7°C° 0.1 mm 4 mps 593 mmHg 62%
    18:00 +7°C° 0.1 mm 3 mps 593 mmHg 68%
    19:00 +5°C° 0.1 mm 3 mps 592 mmHg 73%
    20:00 +4°C° 0 mm 3 mps 593 mmHg 77%
    21:00 +3°C° 0 mm 3 mps 593 mmHg 81%
    22:00 +3°C° 0 mm 3 mps 593 mmHg 85%
    23:00 +2°C° 0 mm 3 mps 593 mmHg 85%

    25 April, Thursday

    Time Temperature Precipitation Wind Pressure Humidity
    00:00 +2°C° 0 mm 3 mps 593 mmHg 86%
    01:00 +2°C° 0 mm 3 mps 593 mmHg 87%
    02:00 +2°C° 0 mm 3 mps 593 mmHg 86%
    03:00 +2°C° 0 mm 3 mps 593 mmHg 86%
    04:00 +2°C° 0 mm 3 mps 593 mmHg 85%
    05:00 +2°C° 0 mm 3 mps 593 mmHg 82%
    06:00 +3°C° 0 mm 3 mps 593 mmHg 79%
    07:00 +4°C° 0 mm 4 mps 594 mmHg 76%
    08:00 +5°C° 0 mm 4 mps 594 mmHg 71%
    09:00 +6°C° 0 mm 4 mps 595 mmHg 66%
    10:00 +8°C° 0 mm 4 mps 595 mmHg 61%
    11:00 +8°C° 0 mm 4 mps 595 mmHg 60%
    12:00 +10°C° 0 mm 4 mps 595 mmHg 58%
    13:00 +10°C° 0 mm 4 mps 595 mmHg 56%
    14:00 +10°C° 0 mm 4 mps 595 mmHg 56%
    15:00 +10°C° 0 mm 4 mps 594 mmHg 55%
    16:00 +10°C° 0 mm 4 mps 594 mmHg 55%
    17:00 +8°C° 0 mm 4 mps 593 mmHg 60%
    18:00 +7°C° 0 mm 4 mps 592 mmHg 66%
    19:00 +5°C° 0 mm 3 mps 592 mmHg 71%
    20:00 +4°C° 0 mm 3 mps 591 mmHg 76%
    21:00 +4°C° 0 mm 3 mps 591 mmHg 80%
    22:00 +3°C° 0 mm 3 mps 591 mmHg 84%
    23:00 +3°C° 0.1 mm 3 mps 591 mmHg 85%
    Show more